Change the Weather History Date:

Tuesday, August 27, 2013

  Actual Average Record
Temperature  
Mean Temperature 57 °F -  
Max Temperature 73 °F 66 °F 76 °F (1990)
Min Temperature 40 °F 36 °F 25 °F (1992)
Degree Days  
Heating Degree Days 8 14  
Month to date heating degree days 307 328  
Since 1 June heating degree days 945 1144  
Since 1 July heating degree days 574 664  
Cooling Degree Days 0 0  
Month to date cooling degree days 0 0  
Year to date cooling degree days 0 0  
Since 1 June cooling degree days 0 0  
Growing Degree Days 7 (Base 50)    
Moisture  
Dew Point 40 °F    
Average Humidity 60    
Maximum Humidity 100    
Minimum Humidity 20    
Precipitation  
Precipitation 0.00 in 0.06 in 0.13 in (1983)
Month to date precipitation 1.20 1.79  
Year to date precipitation 11.43 8.71  
Sea Level Pressure  
Sea Level Pressure 30.04 in    
Wind  
Wind Speed 4 mph (East)    
Max Wind Speed 16 mph    
Max Gust Speed 21 mph    
Visibility 10 miles    
Events Thunderstorm    
T = Trace of Precipitation, MM = Missing Value Source: NWS Daily Summary

Daily Weather History Graph

Daily Weather History Graph

Search for Another Location

Airport or City:

Trip Planner

Search our weather history database for the weather conditions in past years. The results will help you decide how hot, cold, wet, or windy it might be!

Date:

Astronomy

Aug. 27, 2013 Rise Set
Actual Time 6:29 AM MDT 7:43 PM MDT
Civil Twilight 6:01 AM MDT 8:10 PM MDT
Nautical Twilight 5:28 AM MDT 8:43 PM MDT
Astronomical Twilight 4:53 AM MDT 9:18 PM MDT
Moon 11:41 PM MDT (8/27) 1:27 PM MDT (8/27)
Length of Visible Light 14h 08m
Length of Day
13h 13m
Waning Gibbous, 56% of the Moon is Illuminated
Aug 27
Waning Gibbous
Aug 28
Last Quarter
Sep 5
New
Sep 12
First Quarter
Sep 19
Full

Hourly Weather History & Observations

Time (MDT) Temp. Windchill Dew Point Humidity Pressure Visibility Wind Dir Wind Speed Gust Speed Precip Events Conditions
12:53 AM 46.9 °F - 45.0 °F 93% 30.04 in 10.0 mi Calm Calm - N/A   Clear
1:53 AM 44.1 °F - 42.1 °F 93% 30.07 in 10.0 mi Calm Calm - N/A   Clear
2:53 AM 43.0 °F 40.3 °F 42.1 °F 97% 30.06 in 10.0 mi NE 4.6 mph - N/A   Clear
3:53 AM 41.0 °F 37.1 °F 39.9 °F 96% 30.08 in 10.0 mi ENE 5.8 mph - N/A   Clear
4:53 AM 42.1 °F - 41.0 °F 96% 30.06 in 10.0 mi Calm Calm - N/A   Clear
5:53 AM 41.0 °F - 39.9 °F 96% 30.09 in 10.0 mi Calm Calm - N/A   Scattered Clouds
6:53 AM 41.0 °F - 39.0 °F 93% 30.17 in 10.0 mi Calm Calm - N/A   Clear
7:53 AM 48.0 °F - 44.1 °F 86% 30.12 in 10.0 mi NE 3.5 mph - N/A   Clear
8:53 AM 54.0 °F - 46.0 °F 75% 30.10 in 10.0 mi Calm Calm - N/A   Clear
9:53 AM 57.9 °F - 45.0 °F 62% 30.07 in 10.0 mi Calm Calm - N/A   Clear
10:53 AM 64.0 °F - 44.1 °F 48% 30.04 in 10.0 mi Variable 3.5 mph - N/A   Clear
11:53 AM 66.0 °F - 39.0 °F 37% 30.02 in 10.0 mi Variable 3.5 mph - N/A   Clear
12:53 PM 66.0 °F - 39.9 °F 38% 30.00 in 10.0 mi Calm Calm - N/A   Scattered Clouds
1:53 PM 71.1 °F - 34.0 °F 26% 29.97 in 10.0 mi South 9.2 mph 17.3 mph N/A   Overcast
2:53 PM 71.1 °F - 28.0 °F 20% 29.96 in 10.0 mi WSW 5.8 mph - N/A   Scattered Clouds
3:53 PM 72.0 °F - 32.0 °F 23% 29.95 in 10.0 mi South 11.5 mph 18.4 mph N/A   Scattered Clouds
4:53 PM 73.0 °F - 32.0 °F 22% 29.92 in 10.0 mi SSE 9.2 mph - N/A   Partly Cloudy
5:53 PM 71.1 °F - 32.0 °F 24% 29.94 in 10.0 mi South 10.4 mph 20.7 mph N/A   Overcast
6:53 PM 66.9 °F - 42.1 °F 40% 29.98 in 10.0 mi SE 10.4 mph 19.6 mph N/A Thunderstorm Mostly Cloudy
7:24 PM 62.6 °F - 42.8 °F 48% 30.46 in 10.0 mi ENE 3.5 mph - N/A   Clear
7:53 PM 61.0 °F - 39.9 °F 46% 29.98 in 10.0 mi ESE 4.6 mph - N/A   Clear
8:53 PM 57.0 °F - 42.1 °F 57% 29.99 in 10.0 mi North 3.5 mph - N/A   Clear
9:53 PM 55.9 °F - 43.0 °F 62% 29.99 in 10.0 mi NE 3.5 mph - N/A   Mostly Cloudy
10:53 PM 55.0 °F - 41.0 °F 59% 29.96 in 10.0 mi Calm Calm - N/A   Clear
11:53 PM 51.1 °F - 43.0 °F 74% 29.97 in 10.0 mi NE 3.5 mph - N/A   Partly Cloudy